Location: LDNL
(36.4545°S, 141.6685°E)
Time: 04:56:40
(UTC+11:00)

A-11 Canister half - Pass Details

Date: 15 August 2022
Orbit: 1524 x 1684 km, 47.3° (Epoch: 05 October)

Event Time Altitude Azimuth Distance (km) Brightness Sun altitude
Rises 13:59:56 0° 2° (N) 4,747 12.4 35.9°
Reaches altitude 10° 14:04:35 10° 21° (NNE) 3,742 11.7 35.5°
Maximum altitude 14:09:51 16° 56° (NE) 3,237 10.9 35.0°
Drops below altitude 10° 14:15:05 10° 91° (E) 3,712 10.9 34.5°
Sets 14:19:36 0° 110° (ESE) 4,692 11.2 34.1°
